Location: Aldenham
(51.6667°N, 0.3500°W)
Time: 15:54:28
(UTC+00:00)

ISS - Pass Details

Date: 18 November 2025
Orbit: 416 x 420 km, 51.6° (Epoch: 12 December)

Event Time Altitude Azimuth Distance (km) Brightness Sun altitude
Rises 17:56:55 0° 245° (WSW) 2,365 1.6 -16.7°
Reaches altitude 10° 17:59:02 10° 241° (WSW) 1,501 0.2 -17.0°
Maximum altitude 18:02:21 59° 162° (SSE) 488 -3.6 -17.5°
Enters shadow 18:02:57 49° 115° (ESE) 550 -3.6 -17.6°
